User: anonymous   Login
Location: Albany
(35.0000°S, 118.0000°E)
Time: 06:48:27
(UTC-04:00)
Language:

ERS-1 Rocket - Orbit

View from above orbital plane
View from above orbital plane
View from above satellite
View from above satellite

Ground track
Ground track

The orbit data is extracted from the following two-line orbital elements,

1 21610U 91050F   17087.76526420 +.00000028 +00000-0 +22718-4 0  9994
2 21610 098.6148 143.7930 0003487 164.2695 303.3060 14.40786503348255
Epoch (UTC): 28 March 2017 18:21:58
Eccentricity: 0.0003487
inclination: 98.6148°
perigee height: 753 km
apogee height: 758 km
right ascension of ascending node: 143.7930°
argument of perigee: 164.2695°
revolutions per day: 14.40786503
mean anomaly at epoch: 303.3060°
orbit number at epoch: 34825

The dashed part of the orbit path shows where the satellite is in the earth's shadow,  

DLR